Weather History for KACT - April, 2013

Change the Weather History Date:

Sunday, April 28, 2013

  Actual Average Record
Temperature  
Mean Temperature 68 °F 70 °F  
Max Temperature 85 °F 81 °F 94 °F (1987)
Min Temperature 50 °F 58 °F 41 °F (2008)
Degree Days  
Heating Degree Days 0 1  
Month to date heating degree days 134 76  
Since 1 July heating degree days 1982 2134  
Cooling Degree Days 3 5  
Month to date cooling degree days 80 98  
Year to date cooling degree days 123 141  
Growing Degree Days 17 (Base 50)    
Moisture  
Dew Point 59 °F    
Average Humidity 70    
Maximum Humidity 100    
Minimum Humidity 40    
Precipitation  
Precipitation 0.00 in 0.10 in 2.20 in (1936)
Month to date precipitation 1.75 2.46  
Year to date precipitation 10.73 10.36  
Snow  
Snow 0.00 in 0.00 in 0.00 in ()
Month to date snowfall 0.0 0.2  
Since 1 July snowfall T 1.2  
Snow Depth 0.00 in    
Sea Level Pressure  
Sea Level Pressure 29.95 in    
Wind  
Wind Speed 6 mph (East)    
Max Wind Speed 17 mph    
Max Gust Speed 21 mph    
Visibility 8 miles    
Events      
T = Trace of Precipitation, MM = Missing Value Source: NWS Daily Summary

Daily Weather History Graph

Daily Weather History Graph

Search for Another Location

Airport or City:

Trip Planner

Search our weather history database for the weather conditions in past years. The results will help you decide how hot, cold, wet, or windy it might be!

Date:

Astronomy

Apr. 28, 2013 Rise Set
Actual Time 6:46 AM CDT 8:06 PM CDT
Civil Twilight 6:20 AM CDT 8:32 PM CDT
Nautical Twilight 5:49 AM CDT 9:03 PM CDT
Astronomical Twilight 5:18 AM CDT 9:35 PM CDT
Moon 11:32 PM CDT (4/28) 9:10 AM CDT (4/28)
Length of Visible Light 14h 12m
Length of Day
13h 20m
Waning Gibbous, 88% of the Moon is Illuminated
Apr 28
Waning Gibbous
May 2
Last Quarter
May 9
New
May 17
First Quarter
May 24
Full

Hourly Weather History & Observations

Time (CDT) Temp. Heat Index Dew Point Humidity Pressure Visibility Wind Dir Wind Speed Gust Speed Precip Events Conditions
12:51 AM 61.0 °F - 55.0 °F 81% 30.05 in 10.0 mi East 4.6 mph - N/A   Clear
1:51 AM 60.1 °F - 55.9 °F 86% 30.02 in 9.0 mi NNE 3.5 mph - N/A   Mostly Cloudy
2:51 AM 59.0 °F - 55.0 °F 87% 30.00 in 9.0 mi Calm Calm - N/A   Clear
3:51 AM 55.9 °F - 53.1 °F 90% 29.98 in 6.0 mi North 4.6 mph - N/A   Clear
4:51 AM 54.0 °F - 53.1 °F 97% 29.97 in 5.0 mi Calm Calm - N/A   Clear
5:51 AM 51.1 °F - 50.0 °F 96% 29.96 in 3.0 mi Calm Calm - N/A   Clear
6:51 AM 51.1 °F - 50.0 °F 96% 29.97 in 3.0 mi North 4.6 mph - N/A   Clear
7:51 AM 57.0 °F - 55.9 °F 96% 29.97 in 4.0 mi South 3.5 mph - N/A   Clear
8:35 AM 59.0 °F - 55.4 °F 88% 30.00 in 4.0 mi NE 6.9 mph - N/A   Overcast
8:49 AM 60.8 °F - 57.2 °F 88% 30.00 in 5.0 mi NE 6.9 mph - N/A   Overcast
8:51 AM 61.0 °F - 57.0 °F 87% 29.99 in 5.0 mi NE 5.8 mph - N/A   Overcast
9:23 AM 64.4 °F - 59.0 °F 83% 30.00 in 5.0 mi NNE 5.8 mph - N/A   Haze
9:51 AM 64.9 °F - 61.0 °F 87% 30.00 in 4.0 mi East 5.8 mph - N/A   Overcast
10:27 AM 69.8 °F - 62.6 °F 78% 30.01 in 5.0 mi NE 5.8 mph - N/A   Haze
10:51 AM 70.0 °F - 63.0 °F 78% 30.00 in 6.0 mi NE 5.8 mph - N/A   Haze
11:11 AM 71.6 °F - 64.4 °F 78% 30.01 in 7.0 mi Variable 4.6 mph - N/A   Mostly Cloudy
11:51 AM 75.0 °F - 64.0 °F 69% 29.99 in 8.0 mi East 4.6 mph - N/A   Scattered Clouds
12:19 PM 77.0 °F - 64.4 °F 65% 29.99 in 9.0 mi Variable 4.6 mph - N/A   Mostly Cloudy
12:35 PM 77.0 °F - 64.4 °F 65% 29.98 in 10.0 mi NNE 5.8 mph - N/A   Scattered Clouds
12:51 PM 79.0 °F - 64.9 °F 62% 29.96 in 10.0 mi SE 8.1 mph - N/A   Mostly Cloudy
12:58 PM 78.8 °F - 62.6 °F 57% 29.97 in 10.0 mi Calm Calm - N/A   Partly Cloudy
1:51 PM 81.0 °F 82.5 °F 64.0 °F 56% 29.94 in 10.0 mi ESE 8.1 mph - N/A   Clear
2:51 PM 82.0 °F 83.1 °F 63.0 °F 52% 29.91 in 9.0 mi East 5.8 mph - N/A   Partly Cloudy
3:51 PM 84.0 °F 84.4 °F 61.0 °F 46% 29.88 in 10.0 mi Variable 3.5 mph - N/A   Clear
4:51 PM 84.0 °F 83.5 °F 57.9 °F 41% 29.85 in 10.0 mi Variable 4.6 mph - N/A   Clear
5:51 PM 84.0 °F 83.8 °F 59.0 °F 43% 29.84 in 10.0 mi SE 8.1 mph - N/A   Partly Cloudy
6:51 PM 82.0 °F 82.0 °F 57.9 °F 44% 29.84 in 10.0 mi SSE 8.1 mph - N/A   Clear
7:51 PM 79.0 °F - 57.9 °F 48% 29.85 in 10.0 mi SE 9.2 mph - N/A   Clear
8:51 PM 73.0 °F - 59.0 °F 61% 29.87 in 10.0 mi SE 5.8 mph - N/A   Clear
9:51 PM 73.9 °F - 60.1 °F 62% 29.88 in 10.0 mi SSE 12.7 mph - N/A   Clear
10:51 PM 73.0 °F - 60.1 °F 64% 29.89 in 10.0 mi SSE 13.8 mph - N/A   Clear
11:51 PM 70.0 °F - 61.0 °F 73% 29.89 in 10.0 mi South 13.8 mph - N/A   Clear